Weather in Skopino

Russia / Kurgan Oblast     55°51′55″N   65°25′12″E
temp.,
°C
wind,
m/s
gust,
m/s
humid.,
%
clouds,
%
prec.,
mm/h
press.,
hPa
HPBL,
m
28 february, sun
sun2823:00−17se51096100 0.4 1020417
02:00−17se51096100 0.5 1018395
05:00−17ese4996100 1.0 1016386
08:00−19e489699 0.3 1014324
11:00−16e489399 0.3 1012351
14:00−14e5892100 0.1 1011440
17:00−13ene61092100 0.3 1009484
20:00−14ne5994100 0.1 1009389
1 march, mon
mon123:00−16ne599499 0.2 1009341
02:00−17ne5995100 0.1 1010333
05:00−19nne489695 0.1 1011231
08:00−20nne489794 0.1 1013273
11:00−19n459596 0.1 1015265
14:00−16n3492100 0.0 1015321
17:00−15nne2294100 0.1 1017119
20:00−18ne019798 0.0 101720
2 march, tue
tue223:00−18sw119789 0.1 101820
02:00−19sw229881 0.0 101720
05:00−19sw229786 0.1 101620
08:00−18ssw239786 0.1 101686
11:00−15ssw349383 0.1 1015297
14:00−12ssw359298 0.0 1013407
17:00−13s479399 0.1 1012258
20:00−17s489784 0.0 1011137
3 march, wed
wed323:00−18s489783 0.0 1010195
02:00−16s51095100 0.0 1007294
05:00−16s61193100 0.0 1007344
08:00−15ssw61294100 0.2 1006429
11:00−10ssw71190100 0.4 1005714
14:00−8ssw71190100 0.1 1004711
17:00−6s61191100 0.2 1003643
20:00−5s61294100 0.1 1002510
4 march, thu
thu423:00−4ssw51195100 0.3 1001454
02:00−4ssw4896100 0.2 1000260
05:00−7ssw3697100 0.3 100098
08:00−8sw239799 0.1 100046
11:00−6w2393100 0.1 1000225
14:00−4wnw249199 0.0 1000361
17:00−6wnw239181 0.0 100135
20:00−9w349420 0.0 100251